[ hide orbit diagram ]
For accurate long-term ephemerides, please instead use our Horizons system.This orbit viewer was implemented using two-body methods, and hence should not be used for determining accurate long-term trajectories (over several years or decades) or planetary encounter circumstances.
[ revert to old Java-based viewer ]
Orbital Elements at Epoch 2458600.5 (2019-Apr-27.0) TDB
Reference: JPL 32 (heliocentric ecliptic J2000)
Element | Value | Uncertainty (1-sigma) | Units |
e | .2104880816714665 | 4.1382e-08 | |
a | 2.619956433628459 | 7.5629e-09 | au |
q | 2.068486829851188 | 1.0909e-07 | au |
i | 10.29948482928802 | 4.7043e-06 | deg |
node | 29.48005842174742 | 2.3715e-05 | deg |
peri | 19.59123093775066 | 2.5691e-05 | deg |
M | 322.1595190232577 | 1.0023e-05 | deg |
tp | 2458763.314724428040 (2019-Oct-06.81472443) | 4.336e-05 | TDB |
period | 1548.957605219646 4.24 | 6.707e-06 1.836e-08 | d yr |
n | .2324143661433206 | 1.0063e-09 | deg/d |
Q | 3.17142603740573 | 9.1548e-09 | au |
|
| | Orbit Determination Parameters
Additional Information
|
[ show covariance matrix ]
Physical Parameter Table
Parameter |
Symbol |
Value |
Units |
Sigma |
Reference |
Notes |
absolute magnitude |
H |
10.44 |
|
n/a |
IRAS-A-FPA-3-RDR-IMPS-V6.0 |
IRAS observations used: 2 |
diameter |
diameter |
25.784 |
km |
0.174 |
urn:nasa:pds:neowise_diameters_albedos::2.0[mainbelt] (http://adsabs.harvard.edu/abs/2014ApJ...791..121M) |
|
rotation period |
rot_per |
5.5362 |
h |
n/a |
LCDB (Rev. 2019-January); Warner et al., 2009 |
Published Reference List: [Behrend, R. (2007) Observatoire de Geneve web site, http://obswww.unige.ch/~behrend/page_cou.html] [Collaborative Asteroid Lightcurve Link (CALL) (2011) http://www.minorplanetobserver.com/DATA/submissions_results.htm] [Klinglesmith III, D.K. (2017) Minor Planet Bull. 44, 345-348.] |
geometric albedo |
albedo |
0.221 |
|
0.032 |
urn:nasa:pds:neowise_diameters_albedos::2.0[mainbelt] (http://adsabs.harvard.edu/abs/2014ApJ...791..121M) |
|
B-V |
BV |
0.869 |
|
0.024 |
EAR-A-5-DDR-UBV-MEAN-VALUES-V1.2 |
#obs=1; phase=10.21 deg. |
U-B |
UB |
0.453 |
|
0.043 |
EAR-A-5-DDR-UBV-MEAN-VALUES-V1.2 |
#obs=1; phase=10.21 deg. |
Tholen spectral type |
spec_T |
S |
|
n/a |
EAR-A-5-DDR-TAXONOMY-V4.0 |
used 7 color indices |
|
459 Signe (A900 UH) Discovered 1900-Oct-22 by Wolf, M. at Heidelberg |
Reference: DISCOVERY.DB | Last Updated: 2003-08-29 |
|
Alternate Designations
A900 UH = 1934 VH = 1938 SE1 = A917 TF = A921 RD |
|
|